Regional Weather Roundup
Issued by NWS

Home | Current Version | Previous Version | Graphics & Text | Print | Product List | Glossary On
Versions: 1 2 3 4 5 6 7 8 9 10 11 12 13 14 15 16 17 18 19 20 21 22 23 24 25 26 27 28 29 30 31 32 33 34 35 36 37 38 39 40 41 42 43 44 45 46 47 48 49 50
000
ASUS43 KFSD 171102
RWRSD

WEATHER ROUNDUP FOR SOUTH DAKOTA
NATIONAL WEATHER SERVICE SIOUX FALLS SD
600 AM CDT THU APR 17 2014

NOTE: "FAIR" INDICATES FEW OR NO CLOUDS BELOW 12,000 FEET WITH NO
SIGNIFICANT WEATHER AND/OR OBSTRUCTIONS TO VISIBILITY.


SDZ001>005-009-010-012>017-171200-
NORTHWEST AND NORTH CENTRAL SOUTH DAKOTA

CITY           SKY/WX    TMP DP  RH WIND       PRES   REMARKS
FAITH            N/A     28  22  78 SE9       30.21R WCI  19
MOBRIDGE       CLOUDY    26  16  65 CALM      30.25S
$$

SDZ012>016-024>037-041>051-057-063-072>074-171200-
SOUTHWEST AND SOUTH CENTRAL SOUTH DAKOTA

CITY           SKY/WX    TMP DP  RH WIND       PRES   REMARKS
RAPID CTY ARPT CLOUDY    28  25  88 S10       30.14F WCI  19
PIERRE         CLOUDY    22  18  85 NE5       30.28R WCI  16
CUSTER         FOG       25  24  96 VRB3      30.06S VSB 1/2
ELLSWORTH AFB  CLOUDY    28  25  87 S10       30.13F WCI  19
PHILIP         CLOUDY    30  24  78 E6        30.24S WCI  24
PINE RIDGE     CLOUDY    31  27  85 E5        30.17S WCI  26
WINNER         FAIR      24  19  81 SW6       30.28R WCI  17
$$

SDZ004>011-016>023-039-040-171200-
NORTHEAST SOUTH DAKOTA

CITY           SKY/WX    TMP DP  RH WIND       PRES   REMARKS
ABERDEEN       CLEAR     16  13  88 N7        30.29R WCI   6
WATERTOWN      CLEAR     16  13  88 N12       30.21S WCI   3
$$

SDZ017-020-022-023-036>040-048>070-171200-
SOUTHEAST SOUTH DAKOTA

CITY           SKY/WX    TMP DP  RH WIND       PRES   REMARKS
SIOUX FALLS    PTCLDY    21  18  88 NW5       30.23R WCI  15
HURON          CLEAR     15  12  88 NW6       30.28R WCI   6
CHAMBERLAIN      N/A     21  18  88 NW5       30.30R WCI  15
MITCHELL       CLEAR     21  18  88 W5        30.29R WCI  15
YANKTON        CLEAR     23  19  86 NW8       30.27R WCI  14
$$

ABBREVIATIONS USED IN REMARKS
   TC - TEMPERATURE IN CELSIUS
  WCI - WIND CHILL INDEX
   HX - HEAT INDEX
  VSB - VISIBILITY




USA.gov is the U.S. government's official web portal to all federal, state and local government web resources and services.